When you browse on this site, cookies collect data to enhance your experience and personalize the content and advertising you see.
Visit our Privacy Policy to learn more. By continuing to use the site, you agree to this use of cookies and data.
  • In Romania
  • List of Countries
  • For 7 days
  • Water Temperature
  • Weather Map
  • Weather Widgets
  • user-avatar
    Login

    Hourly Weather Asha

    Today, 9 December, Monday

    Time Temperature Precipitation Wind Pressure Humidity
    00:00 -2°C° 0 mm 4 mps 746 mmHg 94%
    01:00 -1°C° 0 mm 4 mps 746 mmHg 95%
    02:00 -1°C° 0 mm 4 mps 746 mmHg 96%
    03:00 -1°C° 0 mm 4 mps 746 mmHg 96%
    04:00 -2°C° 0 mm 4 mps 746 mmHg 95%
    05:00 -2°C° 0.2 mm 4 mps 746 mmHg 95%
    06:00 -1°C° 0.2 mm 4 mps 746 mmHg 96%
    07:00 -1°C° 0.2 mm 4 mps 746 mmHg 96%
    08:00 -1°C° 0.1 mm 5 mps 746 mmHg 96%
    09:00 -1°C° 0.1 mm 5 mps 747 mmHg 97%
    10:00 -1°C° 0 mm 5 mps 747 mmHg 97%
    11:00 -1°C° 0.2 mm 5 mps 747 mmHg 95%
    12:00 -1°C° 0.2 mm 5 mps 747 mmHg 94%
    13:00 -1°C° 0.2 mm 5 mps 747 mmHg 93%
    14:00 -1°C° 0 mm 4 mps 748 mmHg 92%
    15:00 -2°C° 0 mm 4 mps 748 mmHg 92%
    16:00 -1°C° 0 mm 3 mps 748 mmHg 92%
    17:00 -1°C° 0 mm 3 mps 748 mmHg 92%
    18:00 -2°C° 0 mm 3 mps 748 mmHg 92%
    19:00 -2°C° 0 mm 3 mps 748 mmHg 92%
    20:00 -2°C° 0 mm 3 mps 748 mmHg 93%
    21:00 -4°C° 0 mm 3 mps 748 mmHg 94%
    22:00 -4°C° 0 mm 3 mps 748 mmHg 95%
    23:00 -4°C° 0 mm 3 mps 748 mmHg 95%

    Tomorrow, 10 December, Tuesday

    Time Temperature Precipitation Wind Pressure Humidity
    00:00 -4°C° 0 mm 3 mps 748 mmHg 95%
    01:00 -4°C° 0 mm 3 mps 748 mmHg 95%
    02:00 -5°C° 0 mm 3 mps 748 mmHg 95%
    03:00 -5°C° 0 mm 3 mps 748 mmHg 94%
    04:00 -5°C° 0 mm 3 mps 748 mmHg 94%
    05:00 -5°C° 0 mm 3 mps 748 mmHg 94%
    06:00 -6°C° 0 mm 3 mps 748 mmHg 94%
    07:00 -5°C° 0 mm 2 mps 748 mmHg 94%
    08:00 -5°C° 0 mm 2 mps 748 mmHg 93%
    09:00 -6°C° 0 mm 3 mps 748 mmHg 91%
    10:00 -6°C° 0 mm 3 mps 748 mmHg 89%
    11:00 -6°C° 0 mm 3 mps 748 mmHg 87%
    12:00 -5°C° 0 mm 3 mps 748 mmHg 85%
    13:00 -5°C° 0 mm 3 mps 748 mmHg 83%
    14:00 -6°C° 0 mm 3 mps 748 mmHg 86%
    15:00 -5°C° 0 mm 2 mps 748 mmHg 88%
    16:00 -6°C° 0 mm 2 mps 748 mmHg 90%
    17:00 -7°C° 0 mm 2 mps 748 mmHg 91%
    18:00 -6°C° 0 mm 1 mps 748 mmHg 92%
    19:00 -7°C° 0 mm 1 mps 748 mmHg 92%
    20:00 -7°C° 0 mm 1 mps 748 mmHg 92%
    21:00 -7°C° 0 mm 1 mps 748 mmHg 92%
    22:00 -8°C° 0 mm 2 mps 748 mmHg 92%
    23:00 -6°C° 0 mm 1 mps 748 mmHg 92%

    Day after tomorrow, 11 December, Wednesday

    Time Temperature Precipitation Wind Pressure Humidity
    00:00 -6°C° 0 mm 1 mps 748 mmHg 91%
    01:00 -6°C° 0 mm 1 mps 748 mmHg 91%
    02:00 -6°C° 0 mm 1 mps 748 mmHg 91%
    03:00 -6°C° 0 mm 1 mps 748 mmHg 91%
    04:00 -4°C° 0 mm 1 mps 748 mmHg 91%
    05:00 -4°C° 0 mm 1 mps 748 mmHg 92%
    06:00 -4°C° 0 mm 1 mps 747 mmHg 93%
    07:00 -4°C° 0 mm 1 mps 747 mmHg 94%
    08:00 -4°C° 0 mm 1 mps 747 mmHg 93%
    09:00 -4°C° 0 mm 1 mps 747 mmHg 92%
    10:00 -3°C° 0 mm 1 mps 747 mmHg 92%
    11:00 -5°C° 0.1 mm 2 mps 746 mmHg 92%
    12:00 -4°C° 0.1 mm 2 mps 745 mmHg 92%
    13:00 -4°C° 0.1 mm 2 mps 745 mmHg 93%
    14:00 -4°C° 0.2 mm 2 mps 744 mmHg 94%
    15:00 -5°C° 0.2 mm 2 mps 744 mmHg 95%
    16:00 -5°C° 0.2 mm 2 mps 744 mmHg 96%
    17:00 -5°C° 0.2 mm 2 mps 743 mmHg 95%
    18:00 -5°C° 0.2 mm 2 mps 743 mmHg 95%
    19:00 -6°C° 0.2 mm 3 mps 743 mmHg 95%
    20:00 -6°C° 0.2 mm 3 mps 742 mmHg 95%
    21:00 -6°C° 0.2 mm 3 mps 742 mmHg 95%
    22:00 -5°C° 0.2 mm 2 mps 741 mmHg 95%
    23:00 -5°C° 0.3 mm 2 mps 741 mmHg 95%

    12 December, Thursday

    Time Temperature Precipitation Wind Pressure Humidity
    00:00 -5°C° 0.3 mm 2 mps 740 mmHg 96%
    01:00 -5°C° 0.3 mm 2 mps 740 mmHg 96%
    02:00 -5°C° 0.4 mm 2 mps 739 mmHg 96%
    03:00 -5°C° 0.4 mm 2 mps 739 mmHg 96%
    04:00 -5°C° 0.4 mm 2 mps 739 mmHg 96%
    05:00 -3°C° 0.2 mm 1 mps 739 mmHg 96%
    06:00 -3°C° 0.2 mm 1 mps 739 mmHg 97%
    07:00 -3°C° 0.2 mm 1 mps 739 mmHg 97%
    08:00 -3°C° 0.2 mm 1 mps 739 mmHg 96%
    09:00 -4°C° 0.2 mm 0 mps 740 mmHg 96%
    10:00 -4°C° 0.2 mm 0 mps 741 mmHg 96%
    11:00 -2°C° 0.1 mm 1 mps 741 mmHg 94%
    12:00 -2°C° 0.1 mm 1 mps 741 mmHg 93%
    13:00 -3°C° 0.1 mm 2 mps 742 mmHg 92%
    14:00 -5°C° 0 mm 2 mps 742 mmHg 91%
    15:00 -6°C° 0 mm 2 mps 743 mmHg 91%
    16:00 -8°C° 0 mm 2 mps 743 mmHg 91%
    17:00 -9°C° 0 mm 2 mps 744 mmHg 91%
    18:00 -10°C° 0 mm 2 mps 744 mmHg 92%
    19:00 -12°C° 0 mm 2 mps 745 mmHg 93%
    20:00 -13°C° 0 mm 2 mps 745 mmHg 93%
    21:00 -13°C° 0 mm 2 mps 745 mmHg 93%
    22:00 -14°C° 0 mm 2 mps 746 mmHg 94%
    23:00 -14°C° 0 mm 2 mps 746 mmHg 94%

    13 December, Friday

    Time Temperature Precipitation Wind Pressure Humidity
    00:00 -15°C° 0 mm 2 mps 746 mmHg 94%
    01:00 -15°C° 0 mm 2 mps 746 mmHg 95%
    02:00 -15°C° 0 mm 2 mps 747 mmHg 95%
    03:00 -16°C° 0 mm 2 mps 747 mmHg 95%
    04:00 -16°C° 0 mm 2 mps 747 mmHg 95%
    05:00 -16°C° 0 mm 2 mps 747 mmHg 95%
    06:00 -16°C° 0 mm 2 mps 748 mmHg 95%
    07:00 -17°C° 0 mm 2 mps 748 mmHg 95%
    08:00 -16°C° 0 mm 2 mps 748 mmHg 94%
    09:00 -16°C° 0 mm 2 mps 749 mmHg 93%
    10:00 -15°C° 0 mm 2 mps 749 mmHg 91%
    11:00 -14°C° 0 mm 2 mps 749 mmHg 90%
    12:00 -10°C° 0 mm 1 mps 749 mmHg 88%
    13:00 -9°C° 0 mm 1 mps 749 mmHg 86%
    14:00 -10°C° 0 mm 1 mps 749 mmHg 87%
    15:00 -11°C° 0 mm 1 mps 749 mmHg 88%
    16:00 -12°C° 0 mm 1 mps 749 mmHg 88%
    17:00 -12°C° 0 mm 1 mps 750 mmHg 88%
    18:00 -12°C° 0 mm 1 mps 750 mmHg 87%
    19:00 -15°C° 0 mm 2 mps 750 mmHg 86%
    20:00 -12°C° 0 mm 1 mps 751 mmHg 86%
    21:00 -12°C° 0 mm 1 mps 751 mmHg 86%
    22:00 -12°C° 0 mm 1 mps 751 mmHg 86%
    23:00 -12°C° 0 mm 1 mps 751 mmHg 86%

    14 December, Saturday

    Time Temperature Precipitation Wind Pressure Humidity
    00:00 -12°C° 0 mm 1 mps 751 mmHg 86%
    01:00 -12°C° 0 mm 1 mps 752 mmHg 86%
    02:00 -12°C° 0 mm 1 mps 752 mmHg 85%
    03:00 -12°C° 0 mm 1 mps 752 mmHg 84%
    04:00 -12°C° 0 mm 1 mps 752 mmHg 84%
    05:00 -12°C° 0 mm 1 mps 752 mmHg 83%
    06:00 -12°C° 0 mm 1 mps 752 mmHg 82%
    07:00 -12°C° 0 mm 1 mps 752 mmHg 82%
    08:00 -11°C° 0 mm 1 mps 753 mmHg 82%
    09:00 -11°C° 0 mm 1 mps 753 mmHg 81%
    10:00 -10°C° 0 mm 1 mps 753 mmHg 81%
    11:00 -8°C° 0 mm 1 mps 753 mmHg 82%
    12:00 -7°C° 0 mm 1 mps 753 mmHg 82%
    13:00 -6°C° 0 mm 1 mps 753 mmHg 82%
    14:00 -7°C° 0 mm 1 mps 753 mmHg 83%
    15:00 -8°C° 0 mm 1 mps 753 mmHg 83%
    16:00 -9°C° 0 mm 1 mps 753 mmHg 83%
    17:00 -9°C° 0 mm 1 mps 753 mmHg 83%
    18:00 -10°C° 0 mm 1 mps 754 mmHg 82%
    19:00 -10°C° 0 mm 1 mps 754 mmHg 82%
    20:00 -10°C° 0 mm 1 mps 754 mmHg 82%
    21:00 -10°C° 0 mm 1 mps 754 mmHg 82%
    22:00 -10°C° 0 mm 1 mps 754 mmHg 82%
    23:00 -10°C° 0 mm 1 mps 754 mmHg 82%
    Show more